Location: Unspecified
(0.0000°N, 0.0000°E)
Time: 14:13:51
(UTC+00:00)

STARLINK-1316 - Pass Details

Date: 18 February 2026
Orbit: 474 x 477 km, 53.2° (Epoch: 6 March)

Event Time Altitude Azimuth Distance (km) Brightness Sun altitude
Exits shadow 05:03:24 41° 268° (W) 692 3.6 -17.3°
Maximum altitude 05:04:05 48° 303° (WNW) 627 3.5 -17.1°
Drops below altitude 10° 05:07:39 10° 19° (NNE) 1,627 6.1 -16.2°
Sets 05:09:50 0° 25° (NNE) 2,500 7.1 -15.7°
